Location: Molalla
(45.1473°N, 122.5770°W)
Time: 15:23:45
(UTC-08:00)

Courier 1B Rocket - Visible Passes

Search period start: 17 November 2019 00:00
Search period end: 27 November 2019 00:00
Orbit: 920 x 1202 km, 28.2° (Epoch: 16 November)

Date Brightness Start Highest point End Pass type
(mag) Time Alt. Az. Time Alt. Az. Time Alt. Az.
17 Nov 7.2 17:25:51 10° SW 17:31:15 21° S 17:36:48 10° SE visible
17 Nov 7.2 19:18:57 10° SW 19:23:47 18° SSW 19:26:49 14° SSE visible
18 Nov 7.2 18:17:45 10° SW 18:22:55 20° S 18:28:12 10° SE visible
18 Nov 7.6 20:12:58 10° SW 20:15:20 12° SSW 20:16:07 11° SSW visible
19 Nov 7.3 17:16:49 10° SW 17:22:03 21° S 17:27:27 10° SE visible
19 Nov 7.5 19:10:38 10° SW 19:14:32 15° SSW 19:18:29 10° SSE visible
20 Nov 7.5 18:09:07 10° SW 18:13:41 17° SSW 18:18:22 10° SSE visible
21 Nov 7.5 17:08:00 10° SW 17:12:52 19° S 17:17:52 10° SSE visible
21 Nov 7.7 19:03:22 10° SW 19:05:15 11° SSW 19:07:09 10° S visible
22 Nov 7.6 18:00:57 10° SW 18:04:28 14° SSW 18:08:03 10° S visible
23 Nov 7.6 16:59:30 10° SW 17:03:39 16° SSW 17:07:58 10° SSE visible
24 Nov 8.0 17:54:41 10° SSW 17:55:14 10° SSW 17:55:46 10° SSW visible
